Time,TemperatureF,DewpointF,PressureIn,WindDirection,WindDirectionDegrees,WindSpeedMPH,WindSpeedGustMPH,Humidity,HourlyPrecipIn,Conditions,Clouds,dailyrainin,SolarRadiationWatts/m^2,SoftwareType,DateUTC
2013-07-30 00:01:00,53.0,51.0,-100.00,SSE,151,0.0,4.0,94,0.00,,,0.06,0.000000,,2013-07-30 04:01:00,
2013-07-30 00:33:00,53.0,51.0,-100.00,SSE,151,0.0,4.0,94,0.00,,,0.06,0.000000,,2013-07-30 04:33:00,
2013-07-30 00:43:00,53.0,51.0,-100.00,SSE,151,0.0,4.0,94,0.00,,,0.06,0.000000,,2013-07-30 04:43:00,
2013-07-30 00:53:00,53.0,51.0,-100.00,SSE,151,0.0,4.0,94,0.00,,,0.06,0.000000,,2013-07-30 04:53:00,
2013-07-30 01:01:00,52.0,51.0,-100.00,East,101,0.0,3.0,95,0.00,,,0.05,0.000000,,2013-07-30 05:01:00,
2013-07-30 01:33:00,52.0,51.0,-100.00,East,101,0.0,3.0,95,0.00,,,0.05,0.000000,,2013-07-30 05:33:00,
2013-07-30 01:45:00,52.0,51.0,-100.00,East,101,0.0,3.0,95,0.00,,,0.05,0.000000,,2013-07-30 05:45:00,
2013-07-30 01:53:00,52.0,51.0,-100.00,East,101,0.0,3.0,95,0.00,,,0.05,0.000000,,2013-07-30 05:53:00,
2013-07-30 02:01:00,54.0,50.0,-100.00,WNW,299,1.0,6.0,87,0.00,,,0.05,0.000000,,2013-07-30 06:01:00,
2013-07-30 02:33:00,54.0,50.0,-100.00,WNW,299,1.0,6.0,87,0.00,,,0.05,0.000000,,2013-07-30 06:33:00,
2013-07-30 02:43:00,54.0,50.0,-100.00,WNW,299,1.0,6.0,87,0.00,,,0.05,0.000000,,2013-07-30 06:43:00,
2013-07-30 02:53:00,54.0,50.0,-100.00,WNW,299,1.0,6.0,87,0.00,,,0.05,0.000000,,2013-07-30 06:53:00,
2013-07-30 03:01:00,54.0,51.0,-100.00,West,281,3.0,6.0,90,0.00,,,0.00,0.000000,,2013-07-30 07:01:00,
2013-07-30 03:23:00,54.0,51.0,-100.00,West,281,3.0,6.0,90,0.00,,,0.00,0.000000,,2013-07-30 07:23:00,
2013-07-30 03:33:00,54.0,51.0,-100.00,West,281,3.0,6.0,90,0.00,,,0.00,0.000000,,2013-07-30 07:33:00,
2013-07-30 03:43:00,54.0,51.0,-100.00,West,281,3.0,6.0,90,0.00,,,0.00,0.000000,,2013-07-30 07:43:00,
2013-07-30 03:53:00,54.0,51.0,-100.00,West,281,3.0,6.0,90,0.00,,,0.00,0.000000,,2013-07-30 07:53:00,
2013-07-30 04:01:00,55.0,52.0,-100.00,WNW,287,3.0,8.0,90,0.01,,,0.01,0.000000,,2013-07-30 08:01:00,
2013-07-30 04:33:00,55.0,52.0,-100.00,WNW,287,3.0,8.0,90,0.01,,,0.01,0.000000,,2013-07-30 08:33:00,
2013-07-30 04:43:00,55.0,52.0,-100.00,WNW,287,3.0,8.0,90,0.01,,,0.01,0.000000,,2013-07-30 08:43:00,
2013-07-30 04:53:00,55.0,52.0,-100.00,WNW,287,3.0,8.0,90,0.01,,,0.01,0.000000,,2013-07-30 08:53:00,
2013-07-30 05:01:00,54.0,52.0,-100.00,West,264,0.0,5.0,92,0.00,,,0.01,0.000000,,2013-07-30 09:01:00,
2013-07-30 05:33:00,54.0,52.0,-100.00,West,264,0.0,5.0,92,0.00,,,0.01,0.000000,,2013-07-30 09:33:00,
2013-07-30 05:43:00,54.0,52.0,-100.00,West,264,0.0,5.0,92,0.00,,,0.01,0.000000,,2013-07-30 09:43:00,
2013-07-30 05:53:00,54.0,52.0,-100.00,West,264,0.0,5.0,92,0.00,,,0.01,0.000000,,2013-07-30 09:53:00,
2013-07-30 06:01:00,52.0,50.0,-100.00,WSW,255,1.0,5.0,94,0.00,,,0.01,0.000000,,2013-07-30 10:01:00,
2013-07-30 06:33:00,52.0,50.0,-100.00,WSW,255,1.0,5.0,94,0.00,,,0.01,0.000000,,2013-07-30 10:33:00,
2013-07-30 06:44:00,52.0,50.0,-100.00,WSW,255,1.0,5.0,94,0.00,,,0.01,0.000000,,2013-07-30 10:44:00,
2013-07-30 06:52:00,52.0,50.0,-100.00,WSW,255,1.0,5.0,94,0.00,,,0.01,0.000000,,2013-07-30 10:52:00,
2013-07-30 07:22:00,52.0,50.0,-100.00,WNW,290,1.0,4.0,93,0.00,,,0.01,0.000000,,2013-07-30 11:22:00,
2013-07-30 07:33:00,52.0,50.0,-100.00,WNW,290,1.0,4.0,93,0.00,,,0.01,0.000000,,2013-07-30 11:33:00,
2013-07-30 07:43:00,52.0,50.0,-100.00,WNW,290,1.0,4.0,93,0.00,,,0.01,0.000000,,2013-07-30 11:43:00,
2013-07-30 07:53:00,52.0,50.0,-100.00,WNW,290,1.0,4.0,93,0.00,,,0.01,0.000000,,2013-07-30 11:53:00,
2013-07-30 08:01:00,59.0,53.0,-100.00,WNW,289,3.0,6.0,81,0.00,,,0.01,0.000000,,2013-07-30 12:01:00,
2013-07-30 08:33:00,59.0,53.0,-100.00,WNW,289,3.0,6.0,81,0.00,,,0.01,0.000000,,2013-07-30 12:33:00,
2013-07-30 08:42:00,59.0,53.0,-100.00,WNW,289,3.0,6.0,81,0.00,,,0.01,0.000000,,2013-07-30 12:42:00,
2013-07-30 08:53:00,59.0,53.0,-100.00,WNW,289,3.0,6.0,81,0.00,,,0.01,0.000000,,2013-07-30 12:53:00,
2013-07-30 09:01:00,62.0,52.0,-100.00,WNW,293,6.0,10.0,70,0.00,,,0.01,0.000000,,2013-07-30 13:01:00,
2013-07-30 09:33:00,62.0,52.0,-100.00,WNW,293,6.0,10.0,70,0.00,,,0.01,0.000000,,2013-07-30 13:33:00,
2013-07-30 09:43:00,62.0,52.0,-100.00,WNW,293,6.0,10.0,70,0.00,,,0.01,0.000000,,2013-07-30 13:43:00,
2013-07-30 09:52:00,62.0,52.0,-100.00,WNW,293,6.0,10.0,70,0.00,,,0.01,0.000000,,2013-07-30 13:52:00,
2013-07-30 10:01:00,64.0,52.0,-100.00,WNW,282,8.0,14.0,65,0.00,,,0.01,0.000000,,2013-07-30 14:01:00,
2013-07-30 10:33:00,64.0,52.0,-100.00,WNW,282,8.0,14.0,65,0.00,,,0.01,0.000000,,2013-07-30 14:33:00,
2013-07-30 10:43:00,64.0,52.0,-100.00,WNW,282,8.0,14.0,65,0.00,,,0.01,0.000000,,2013-07-30 14:43:00,
2013-07-30 10:53:00,64.0,52.0,-100.00,WNW,282,8.0,14.0,65,0.00,,,0.01,0.000000,,2013-07-30 14:53:00,
2013-07-30 11:01:00,65.0,50.0,-100.00,West,277,9.0,17.0,59,0.00,,,0.01,0.000000,,2013-07-30 15:01:00,
2013-07-30 11:33:00,65.0,50.0,-100.00,West,277,9.0,17.0,59,0.00,,,0.01,0.000000,,2013-07-30 15:33:00,
2013-07-30 11:44:00,65.0,50.0,-100.00,West,277,9.0,17.0,59,0.00,,,0.01,0.000000,,2013-07-30 15:44:00,
2013-07-30 11:53:00,65.0,50.0,-100.00,West,277,9.0,17.0,59,0.00,,,0.01,0.000000,,2013-07-30 15:53:00,
2013-07-30 12:01:00,68.0,51.0,-100.00,WNW,283,7.0,16.0,55,0.00,,,0.01,0.000000,,2013-07-30 16:01:00,
2013-07-30 12:33:00,68.0,51.0,-100.00,WNW,283,7.0,16.0,55,0.00,,,0.01,0.000000,,2013-07-30 16:33:00,
2013-07-30 12:44:00,68.0,51.0,-100.00,WNW,283,7.0,16.0,55,0.00,,,0.01,0.000000,,2013-07-30 16:44:00,
2013-07-30 12:53:00,68.0,51.0,-100.00,WNW,283,7.0,16.0,55,0.00,,,0.01,0.000000,,2013-07-30 16:53:00,
2013-07-30 13:32:00,66.0,49.0,-100.00,WNW,291,7.0,16.0,55,0.00,,,0.01,0.000000,,2013-07-30 17:32:00,
2013-07-30 13:43:00,66.0,49.0,-100.00,WNW,291,7.0,16.0,55,0.00,,,0.01,0.000000,,2013-07-30 17:43:00,
2013-07-30 13:54:00,66.0,49.0,-100.00,WNW,291,7.0,16.0,55,0.00,,,0.01,0.000000,,2013-07-30 17:54:00,
2013-07-30 14:01:00,66.0,51.0,-100.00,West,269,8.0,16.0,59,0.00,,,0.01,0.000000,,2013-07-30 18:01:00,
2013-07-30 14:33:00,66.0,51.0,-100.00,West,269,8.0,16.0,59,0.00,,,0.01,0.000000,,2013-07-30 18:33:00,
2013-07-30 14:43:00,66.0,51.0,-100.00,West,269,8.0,16.0,59,0.00,,,0.01,0.000000,,2013-07-30 18:43:00,
2013-07-30 14:52:00,66.0,51.0,-100.00,West,269,8.0,16.0,59,0.00,,,0.01,0.000000,,2013-07-30 18:52:00,
2013-07-30 15:01:00,67.0,51.0,-100.00,West,280,7.0,15.0,57,0.00,,,0.01,0.000000,,2013-07-30 19:01:00,
2013-07-30 15:23:00,67.0,51.0,-100.00,West,280,7.0,15.0,57,0.00,,,0.01,0.000000,,2013-07-30 19:23:00,
2013-07-30 15:33:00,67.0,51.0,-100.00,West,280,7.0,15.0,57,0.00,,,0.01,0.000000,,2013-07-30 19:33:00,
2013-07-30 15:44:00,67.0,51.0,-100.00,West,280,7.0,15.0,57,0.00,,,0.01,0.000000,,2013-07-30 19:44:00,
2013-07-30 15:53:00,67.0,51.0,-100.00,West,280,7.0,15.0,57,0.00,,,0.01,0.000000,,2013-07-30 19:53:00,
2013-07-30 16:01:00,69.0,51.0,-100.00,WNW,287,9.0,17.0,52,0.00,,,0.01,0.000000,,2013-07-30 20:01:00,
2013-07-30 16:33:00,69.0,51.0,-100.00,WNW,287,9.0,17.0,52,0.00,,,0.01,0.000000,,2013-07-30 20:33:00,
2013-07-30 16:43:00,69.0,51.0,-100.00,WNW,287,9.0,17.0,52,0.00,,,0.01,0.000000,,2013-07-30 20:43:00,
2013-07-30 16:52:00,69.0,51.0,-100.00,WNW,287,9.0,17.0,52,0.00,,,0.01,0.000000,,2013-07-30 20:52:00,
2013-07-30 17:01:00,70.0,53.0,-100.00,West,279,7.0,17.0,54,0.00,,,0.01,0.000000,,2013-07-30 21:01:00,
2013-07-30 17:32:00,70.0,53.0,-100.00,West,279,7.0,17.0,54,0.00,,,0.01,0.000000,,2013-07-30 21:32:00,
2013-07-30 17:42:00,70.0,53.0,-100.00,West,279,7.0,17.0,54,0.00,,,0.01,0.000000,,2013-07-30 21:42:00,
2013-07-30 17:53:00,70.0,53.0,-100.00,West,279,7.0,17.0,54,0.00,,,0.01,0.000000,,2013-07-30 21:53:00,
2013-07-30 18:01:00,69.0,53.0,-100.00,West,276,6.0,17.0,56,0.00,,,0.01,0.000000,,2013-07-30 22:01:00,
2013-07-30 18:43:00,69.0,53.0,-100.00,West,276,6.0,17.0,56,0.00,,,0.01,0.000000,,2013-07-30 22:43:00,
2013-07-30 18:53:00,69.0,53.0,-100.00,West,276,6.0,17.0,56,0.00,,,0.01,0.000000,,2013-07-30 22:53:00,
2013-07-30 19:01:00,67.0,53.0,-100.00,WNW,284,6.0,11.0,60,0.00,,,0.01,0.000000,,2013-07-30 23:01:00,
2013-07-30 19:23:00,67.0,53.0,-100.00,WNW,284,6.0,11.0,60,0.00,,,0.01,0.000000,,2013-07-30 23:23:00,
2013-07-30 19:32:00,67.0,53.0,-100.00,WNW,284,6.0,11.0,60,0.00,,,0.01,0.000000,,2013-07-30 23:32:00,
2013-07-30 19:42:00,67.0,53.0,-100.00,WNW,284,6.0,11.0,60,0.00,,,0.01,0.000000,,2013-07-30 23:42:00,
2013-07-30 19:53:00,67.0,53.0,-100.00,WNW,284,6.0,11.0,60,0.00,,,0.01,0.000000,,2013-07-30 23:53:00,
2013-07-30 20:01:00,64.0,53.0,-100.00,West,275,4.0,11.0,67,0.00,,,0.01,0.000000,,2013-07-31 00:01:00,
2013-07-30 20:32:00,64.0,53.0,-100.00,West,275,4.0,11.0,67,0.00,,,0.01,0.000000,,2013-07-31 00:32:00,
2013-07-30 20:43:00,64.0,53.0,-100.00,West,275,4.0,11.0,67,0.00,,,0.01,0.000000,,2013-07-31 00:43:00,
2013-07-30 20:53:00,64.0,53.0,-100.00,West,275,4.0,11.0,67,0.00,,,0.01,0.000000,,2013-07-31 00:53:00,
2013-07-30 21:01:00,59.0,54.0,-100.00,SW,235,0.0,5.0,83,0.00,,,0.01,0.000000,,2013-07-31 01:01:00,
2013-07-30 21:32:00,59.0,54.0,-100.00,SW,235,0.0,5.0,83,0.00,,,0.01,0.000000,,2013-07-31 01:32:00,
2013-07-30 21:43:00,59.0,54.0,-100.00,SW,235,0.0,5.0,83,0.00,,,0.01,0.000000,,2013-07-31 01:43:00,
2013-07-30 21:52:00,59.0,54.0,-100.00,SW,235,0.0,5.0,83,0.00,,,0.01,0.000000,,2013-07-31 01:52:00,
2013-07-30 22:01:00,56.0,53.0,-100.00,ESE,104,1.0,3.0,91,0.00,,,0.01,0.000000,,2013-07-31 02:01:00,
2013-07-30 22:32:00,56.0,53.0,-100.00,ESE,104,1.0,3.0,91,0.00,,,0.01,0.000000,,2013-07-31 02:32:00,
2013-07-30 22:43:00,56.0,53.0,-100.00,ESE,104,1.0,3.0,91,0.00,,,0.01,0.000000,,2013-07-31 02:43:00,
2013-07-30 22:53:00,56.0,53.0,-100.00,ESE,104,1.0,3.0,91,0.00,,,0.01,0.000000,,2013-07-31 02:53:00,
2013-07-30 23:01:00,56.0,53.0,-100.00,SSE,159,0.0,3.0,91,0.00,,,0.01,0.000000,,2013-07-31 03:01:00,
2013-07-30 23:22:00,56.0,53.0,-100.00,SSE,159,0.0,3.0,91,0.00,,,0.01,0.000000,,2013-07-31 03:22:00,
2013-07-30 23:32:00,56.0,53.0,-100.00,SSE,159,0.0,3.0,91,0.00,,,0.01,0.000000,,2013-07-31 03:32:00,
2013-07-30 23:42:00,56.0,53.0,-100.00,SSE,159,0.0,3.0,91,0.00,,,0.01,0.000000,,2013-07-31 03:42:00,
2013-07-30 23:52:00,56.0,53.0,-100.00,SSE,159,0.0,3.0,91,0.00,,,0.01,0.000000,,2013-07-31 03:52:00,